TimeEST,TemperatureF,Dew PointF,Humidity,Sea Level PressureIn,VisibilityMPH,Wind Direction,Wind SpeedMPH,Gust SpeedMPH,PrecipitationIn,Events,Conditions,WindDirDegrees,DateUTC
12:15 AM,28.8,28.8,100,30.20,10.0,North,-9999.0,-,N/A,,Clear,0,2013-01-03 05:15:00
12:35 AM,28.6,28.6,100,30.20,10.0,North,-9999.0,-,N/A,,Clear,0,2013-01-03 05:35:00
12:55 AM,28.4,28.4,100,30.20,10.0,North,-9999.0,-,N/A,,Clear,0,2013-01-03 05:55:00
1:15 AM,28.4,28.4,100,30.20,10.0,North,-9999.0,-,N/A,,Clear,0,2013-01-03 06:15:00
1:35 AM,28.4,28.4,100,30.20,10.0,North,-9999.0,-,N/A,,Clear,0,2013-01-03 06:35:00
1:55 AM,28.4,28.4,100,30.20,10.0,North,-9999.0,-,N/A,,Clear,0,2013-01-03 06:55:00
2:15 AM,28.9,28.9,100,30.20,10.0,North,-9999.0,-,N/A,,Clear,0,2013-01-03 07:15:00
2:35 AM,28.4,28.4,100,30.20,10.0,North,-9999.0,-,N/A,,Clear,0,2013-01-03 07:35:00
2:55 AM,28.0,28.0,100,30.20,10.0,North,-9999.0,-,N/A,,Clear,0,2013-01-03 07:55:00
3:15 AM,27.9,27.9,100,30.20,10.0,North,-9999.0,-,N/A,,Clear,0,2013-01-03 08:15:00
3:35 AM,27.1,27.1,100,30.20,10.0,North,-9999.0,-,N/A,,Clear,0,2013-01-03 08:35:00
3:55 AM,26.6,26.6,100,30.20,10.0,North,-9999.0,-,N/A,,Clear,0,2013-01-03 08:55:00
4:15 AM,26.4,26.4,100,30.19,10.0,North,-9999.0,-,N/A,,Clear,0,2013-01-03 09:15:00
4:35 AM,26.2,26.2,100,30.19,10.0,North,-9999.0,-,N/A,,Clear,0,2013-01-03 09:35:00
4:55 AM,25.7,25.7,100,30.20,10.0,North,-9999.0,-,N/A,,Clear,0,2013-01-03 09:55:00
5:15 AM,25.3,25.3,100,30.20,10.0,North,-9999.0,-,N/A,,Clear,0,2013-01-03 10:15:00
5:35 AM,25.2,25.2,100,30.21,10.0,North,-9999.0,-,N/A,,Clear,0,2013-01-03 10:35:00
5:55 AM,25.2,25.2,100,30.22,10.0,North,-9999.0,-,N/A,,Clear,0,2013-01-03 10:55:00
6:15 AM,24.8,24.8,100,30.22,10.0,North,-9999.0,-,N/A,,Clear,0,2013-01-03 11:15:00
6:35 AM,24.4,24.4,100,30.23,10.0,North,-9999.0,-,N/A,,Clear,0,2013-01-03 11:35:00
6:55 AM,24.1,24.1,100,30.23,10.0,North,-9999.0,-,N/A,,Clear,0,2013-01-03 11:55:00
7:15 AM,24.1,24.1,100,30.24,10.0,North,-9999.0,-,N/A,,Scattered Clouds,0,2013-01-03 12:15:00
7:35 AM,25.0,25.0,100,30.24,10.0,North,-9999.0,-,N/A,,Overcast,0,2013-01-03 12:35:00
8:15 AM,26.2,26.1,99,30.24,7.0,North,-9999.0,-,N/A,,Overcast,0,2013-01-03 13:15:00
8:35 AM,26.6,26.6,100,30.25,5.0,North,-9999.0,-,N/A,,Overcast,0,2013-01-03 13:35:00
8:55 AM,27.1,27.1,100,30.25,4.0,North,-9999.0,-,N/A,,Overcast,0,2013-01-03 13:55:00
9:15 AM,27.1,27.1,100,30.25,4.0,North,-9999.0,-,N/A,,Overcast,0,2013-01-03 14:15:00
9:35 AM,27.3,27.3,100,30.25,4.0,North,-9999.0,-,N/A,,Overcast,0,2013-01-03 14:35:00
9:55 AM,28.0,28.0,100,30.26,7.0,North,-9999.0,-,N/A,,Overcast,0,2013-01-03 14:55:00
10:15 AM,28.6,28.6,100,30.27,7.0,North,-9999.0,-,N/A,,Overcast,0,2013-01-03 15:15:00
10:35 AM,29.3,29.3,100,30.27,7.0,North,-9999.0,-,N/A,,Mostly Cloudy,0,2013-01-03 15:35:00
10:55 AM,30.4,30.2,99,30.27,7.0,North,-9999.0,-,N/A,,Mostly Cloudy,0,2013-01-03 15:55:00
11:15 AM,32.2,31.1,96,30.26,10.0,North,-9999.0,-,N/A,,Scattered Clouds,0,2013-01-03 16:15:00
11:35 AM,32.5,30.0,90,30.25,10.0,North,-9999.0,-,N/A,,Clear,0,2013-01-03 16:35:00
11:55 AM,32.2,28.0,85,30.25,10.0,North,-9999.0,-,N/A,,Clear,0,2013-01-03 16:55:00
12:15 PM,34.9,28.4,77,30.25,10.0,North,-9999.0,-,N/A,,Clear,0,2013-01-03 17:15:00
12:35 PM,35.1,27.7,74,30.24,10.0,North,-9999.0,-,N/A,,Clear,0,2013-01-03 17:35:00
12:55 PM,36.1,28.2,73,30.22,10.0,North,-9999.0,-,N/A,,Clear,0,2013-01-03 17:55:00
1:15 PM,36.9,27.9,70,30.22,10.0,North,-9999.0,-,N/A,,Clear,0,2013-01-03 18:15:00
1:35 PM,37.0,27.3,68,30.22,10.0,North,-9999.0,-,N/A,,Clear,0,2013-01-03 18:35:00
1:55 PM,37.8,26.4,64,30.21,10.0,North,-9999.0,-,N/A,,Clear,0,2013-01-03 18:55:00
2:15 PM,38.5,26.8,63,30.21,10.0,North,-9999.0,-,N/A,,Clear,0,2013-01-03 19:15:00
2:35 PM,39.6,28.0,63,30.21,10.0,North,-9999.0,-,N/A,,Clear,0,2013-01-03 19:35:00
2:55 PM,39.4,27.0,61,30.22,10.0,North,-9999.0,-,N/A,,Clear,0,2013-01-03 19:55:00
3:15 PM,39.4,27.1,62,30.23,10.0,North,-9999.0,-,N/A,,Clear,0,2013-01-03 20:15:00
3:35 PM,39.2,28.2,65,30.23,10.0,North,-9999.0,-,N/A,,Clear,0,2013-01-03 20:35:00
3:55 PM,36.0,29.5,77,30.23,10.0,North,-9999.0,-,N/A,,Clear,0,2013-01-03 20:55:00
4:15 PM,35.2,28.6,77,30.24,10.0,North,-9999.0,-,N/A,,Clear,0,2013-01-03 21:15:00
4:35 PM,34.3,28.9,81,30.24,10.0,North,-9999.0,-,N/A,,Clear,0,2013-01-03 21:35:00
4:55 PM,32.5,29.1,87,30.24,10.0,North,-9999.0,-,N/A,,Clear,0,2013-01-03 21:55:00
5:15 PM,32.0,29.1,89,30.25,10.0,North,-9999.0,-,N/A,,Clear,0,2013-01-03 22:15:00
5:55 PM,30.2,28.9,95,30.26,10.0,North,-9999.0,-,N/A,,Clear,0,2013-01-03 22:55:00
6:15 PM,29.7,28.4,95,30.27,10.0,North,-9999.0,-,N/A,,Clear,0,2013-01-03 23:15:00
6:35 PM,29.3,28.4,96,30.27,10.0,North,-9999.0,-,N/A,,Clear,0,2013-01-03 23:35:00
6:55 PM,28.6,27.9,97,30.28,10.0,North,-9999.0,-,N/A,,Clear,0,2013-01-03 23:55:00
7:15 PM,28.2,27.5,97,30.28,10.0,North,-9999.0,-,N/A,,Clear,0,2013-01-04 00:15:00
7:35 PM,27.7,27.3,99,30.28,10.0,North,-9999.0,-,N/A,,Clear,0,2013-01-04 00:35:00
7:55 PM,27.1,26.6,98,30.28,10.0,North,-9999.0,-,N/A,,Clear,0,2013-01-04 00:55:00
8:15 PM,27.0,26.6,99,30.29,10.0,North,-9999.0,-,N/A,,Clear,0,2013-01-04 01:15:00
8:35 PM,26.4,26.2,99,30.29,10.0,North,-9999.0,-,N/A,,Clear,0,2013-01-04 01:35:00
8:55 PM,25.9,25.5,99,30.29,10.0,North,-9999.0,-,N/A,,Clear,0,2013-01-04 01:55:00
9:15 PM,25.7,25.3,99,30.29,10.0,North,-9999.0,-,N/A,,Clear,0,2013-01-04 02:15:00
9:35 PM,25.3,25.0,99,30.30,10.0,North,-9999.0,-,N/A,,Clear,0,2013-01-04 02:35:00
9:55 PM,24.8,24.6,99,30.30,10.0,North,-9999.0,-,N/A,,Clear,0,2013-01-04 02:55:00
10:15 PM,24.4,23.9,98,30.30,10.0,North,-9999.0,-,N/A,,Clear,0,2013-01-04 03:15:00
10:35 PM,24.3,23.9,99,30.31,10.0,North,-9999.0,-,N/A,,Clear,0,2013-01-04 03:35:00
10:55 PM,23.7,23.4,99,30.31,10.0,North,-9999.0,-,N/A,,Clear,0,2013-01-04 03:55:00
11:15 PM,23.7,23.4,99,30.31,10.0,North,-9999.0,-,N/A,,Clear,0,2013-01-04 04:15:00
11:35 PM,23.0,22.8,99,30.32,10.0,North,-9999.0,-,N/A,,Clear,0,2013-01-04 04:35:00
11:55 PM,23.0,22.8,99,30.32,10.0,North,-9999.0,-,N/A,,Clear,0,2013-01-04 04:55:00